User: anonymous   Login
Location: Fort Wayne
(41.1310°N, 85.1290°W)
Time: 05:28:46
(UTC-04:00)
Language:

Cosmos 2227 Rocket - Orbit

View from above orbital plane
View from above orbital plane
View from above satellite
View from above satellite

Ground track
Ground track

The orbit data is extracted from the following two-line orbital elements,

1 22285U 92093B   14297.43310451  .00000162  00000-0  10840-3 0  4367
2 22285 071.0230 080.2135 0003758 194.7840 165.3173 14.14930688125782
Epoch (UTC): 24 October 2014 10:23:40
Eccentricity: 0.0003758
inclination: 71.0230°
perigee height: 840 km
apogee height: 845 km
right ascension of ascending node: 80.2135°
argument of perigee: 194.7840°
revolutions per day: 14.14930688
mean anomaly at epoch: 165.3173°
orbit number at epoch: 12578

The dashed part of the orbit path shows where the satellite is in the earth's shadow,  

DLR